Location: Home
(42.5358°N, 72.7383°W)
Time: 17:31:39
(UTC-05:00)

Tiros 1 - Pass Details

Date: 01 December 2021
Orbit: 629 x 664 km, 48.4° (Epoch: 18 January)

Event Time Altitude Azimuth Distance (km) Brightness Sun altitude
Rises 19:02:00 0° 229° (SW) 2,913 11.2 -29.4°
Reaches altitude 10° 19:04:19 10° 225° (SW) 2,012 10.2 -29.9°
Enters shadow 19:06:33 27° 216° (SW) 1,211 8.8 -30.3°
Maximum altitude 19:08:52 59° 147° (SSE) 740 - -30.7°
Drops below altitude 10° 19:13:29 10° 68° (ENE) 2,041 - -31.5°
Sets 19:15:52 0° 65° (ENE) 2,959 - -32.0°
